カタログに戻る

NOAA 17 DEB

運用中PO
NORAD 48749·DEBRIS·🇺🇸 United States

打ち上げ Jun 24, 2002 から Vandenberg Space Force Base

Loading…

次のパス (今後24時間)

TLE

最新Source: Space-Track

元期: Sep 13, 2026, 18:00 UTC

1 48749U 02032CJ  26256.75056569  .00010132  00000-0  15717-2 0  9993
2 48749  98.7173 262.2045 0003086 323.4783  36.6212 14.73344474287397

AllMySatでNOAA 17 DEBをリアルタイム追跡

Download on the App Store